When you browse on this site, cookies collect data to enhance your experience and personalize the content and advertising you see.
Visit our Privacy Policy to learn more. By continuing to use the site, you agree to this use of cookies and data.
  • In Lithuania
  • List of Countries
  • For 7 days
  • Water Temperature
  • Satellite Maps
  • Weather Map
  • Weather Widgets
  • user-avatar
    Login

    Hourly Weather Nam Dinh

    Today, 15 December, Saturday

    Time Temperature Precipitation Wind Pressure Humidity
    00:00 +19°C° 0 mm 3 mps 767 mmHg 78%
    01:00 +17°C° 0 mm 3 mps 767 mmHg 73%
    02:00 +17°C° 0 mm 3 mps 767 mmHg 73%
    03:00 +16°C° 0 mm 3 mps 767 mmHg 72%
    04:00 +16°C° 0 mm 3 mps 767 mmHg 72%
    05:00 +16°C° 0 mm 3 mps 767 mmHg 71%
    06:00 +14°C° 0 mm 3 mps 767 mmHg 70%
    07:00 +14°C° 0 mm 3 mps 767 mmHg 67%
    08:00 +17°C° 0 mm 3 mps 767 mmHg 65%
    09:00 +18°C° 0 mm 3 mps 767 mmHg 62%
    10:00 +19°C° 0 mm 3 mps 768 mmHg 60%
    11:00 +20°C° 0 mm 3 mps 767 mmHg 59%
    12:00 +21°C° 0 mm 3 mps 766 mmHg 58%
    13:00 +24°C° 0 mm 2 mps 766 mmHg 57%
    14:00 +24°C° 0 mm 3 mps 766 mmHg 59%
    15:00 +24°C° 0 mm 3 mps 765 mmHg 61%
    16:00 +24°C° 0 mm 3 mps 765 mmHg 62%
    17:00 +22°C° 0 mm 3 mps 765 mmHg 67%
    18:00 +21°C° 0 mm 3 mps 765 mmHg 73%
    19:00 +21°C° 0 mm 2 mps 766 mmHg 78%
    20:00 +20°C° 0 mm 2 mps 766 mmHg 80%
    21:00 +20°C° 0 mm 2 mps 766 mmHg 82%
    22:00 +20°C° 0 mm 2 mps 767 mmHg 84%
    23:00 +20°C° 0 mm 2 mps 767 mmHg 84%

    Tomorrow, 16 December, Sunday

    Time Temperature Precipitation Wind Pressure Humidity
    00:00 +20°C° 0 mm 2 mps 767 mmHg 84%
    01:00 +20°C° 0 mm 3 mps 767 mmHg 84%
    02:00 +19°C° 0 mm 3 mps 767 mmHg 84%
    03:00 +19°C° 0 mm 3 mps 766 mmHg 84%
    04:00 +19°C° 0 mm 3 mps 766 mmHg 85%
    05:00 +18°C° 0 mm 3 mps 766 mmHg 83%
    06:00 +18°C° 0 mm 3 mps 767 mmHg 82%
    07:00 +18°C° 0 mm 3 mps 767 mmHg 81%
    08:00 +19°C° 0 mm 3 mps 767 mmHg 75%
    09:00 +20°C° 0 mm 4 mps 768 mmHg 70%
    10:00 +22°C° 0 mm 4 mps 768 mmHg 64%
    11:00 +23°C° 0 mm 4 mps 767 mmHg 61%
    12:00 +25°C° 0 mm 4 mps 767 mmHg 58%
    13:00 +26°C° 0 mm 4 mps 766 mmHg 55%
    14:00 +26°C° 0 mm 3 mps 766 mmHg 56%
    15:00 +26°C° 0 mm 3 mps 765 mmHg 56%
    16:00 +26°C° 0 mm 3 mps 765 mmHg 57%
    17:00 +25°C° 0 mm 2 mps 765 mmHg 61%
    18:00 +24°C° 0 mm 2 mps 765 mmHg 65%
    19:00 +23°C° 0 mm 2 mps 766 mmHg 70%
    20:00 +23°C° 0 mm 2 mps 766 mmHg 71%
    21:00 +21°C° 0 mm 2 mps 766 mmHg 73%
    22:00 +21°C° 0 mm 2 mps 766 mmHg 75%
    23:00 +21°C° 0 mm 2 mps 766 mmHg 75%

    Day after tomorrow, 17 December, Monday

    Time Temperature Precipitation Wind Pressure Humidity
    00:00 +21°C° 0 mm 2 mps 766 mmHg 76%
    01:00 +20°C° 0 mm 2 mps 766 mmHg 77%
    02:00 +20°C° 0 mm 2 mps 766 mmHg 77%
    03:00 +20°C° 0 mm 2 mps 766 mmHg 77%
    04:00 +19°C° 0 mm 3 mps 765 mmHg 78%
    05:00 +19°C° 0 mm 3 mps 766 mmHg 77%
    06:00 +19°C° 0 mm 3 mps 766 mmHg 77%
    07:00 +19°C° 0 mm 3 mps 767 mmHg 77%
    08:00 +20°C° 0 mm 3 mps 767 mmHg 71%
    09:00 +22°C° 0 mm 3 mps 767 mmHg 64%
    10:00 +24°C° 0 mm 3 mps 767 mmHg 58%
    11:00 +25°C° 0 mm 3 mps 767 mmHg 55%
    12:00 +26°C° 0 mm 3 mps 766 mmHg 53%
    13:00 +27°C° 0 mm 2 mps 765 mmHg 50%
    14:00 +27°C° 0 mm 3 mps 765 mmHg 51%
    15:00 +26°C° 0 mm 3 mps 764 mmHg 52%
    16:00 +26°C° 0 mm 3 mps 764 mmHg 53%
    17:00 +25°C° 0 mm 3 mps 764 mmHg 58%
    18:00 +24°C° 0 mm 3 mps 765 mmHg 63%
    19:00 +22°C° 0 mm 3 mps 765 mmHg 68%
    20:00 +22°C° 0 mm 3 mps 765 mmHg 70%
    21:00 +23°C° 0 mm 2 mps 766 mmHg 72%
    22:00 +21°C° 0 mm 2 mps 766 mmHg 74%
    23:00 +21°C° 0 mm 2 mps 765 mmHg 75%

    18 December, Tuesday

    Time Temperature Precipitation Wind Pressure Humidity
    00:00 +21°C° 0 mm 2 mps 765 mmHg 76%
    01:00 +21°C° 0 mm 2 mps 765 mmHg 77%
    02:00 +21°C° 0 mm 2 mps 765 mmHg 78%
    03:00 +20°C° 0 mm 2 mps 764 mmHg 78%
    04:00 +20°C° 0 mm 2 mps 764 mmHg 79%
    05:00 +20°C° 0 mm 2 mps 764 mmHg 79%
    06:00 +20°C° 0 mm 2 mps 765 mmHg 79%
    07:00 +20°C° 0 mm 2 mps 765 mmHg 79%
    08:00 +21°C° 0 mm 2 mps 765 mmHg 74%
    09:00 +24°C° 0 mm 3 mps 765 mmHg 68%
    10:00 +25°C° 0 mm 3 mps 765 mmHg 62%
    11:00 +25°C° 0 mm 3 mps 765 mmHg 63%
    12:00 +25°C° 0 mm 3 mps 764 mmHg 63%
    13:00 +26°C° 0 mm 3 mps 763 mmHg 64%
    14:00 +25°C° 0 mm 3 mps 763 mmHg 66%
    15:00 +25°C° 0 mm 2 mps 762 mmHg 69%
    16:00 +25°C° 0 mm 2 mps 762 mmHg 71%
    17:00 +24°C° 0 mm 2 mps 762 mmHg 74%
    18:00 +24°C° 0 mm 2 mps 763 mmHg 77%
    19:00 +24°C° 0 mm 2 mps 763 mmHg 80%
    20:00 +23°C° 0 mm 2 mps 763 mmHg 81%
    21:00 +23°C° 0 mm 2 mps 764 mmHg 83%
    22:00 +23°C° 0 mm 2 mps 764 mmHg 85%
    23:00 +23°C° 0 mm 2 mps 763 mmHg 86%

    19 December, Wednesday

    Time Temperature Precipitation Wind Pressure Humidity
    00:00 +23°C° 0 mm 2 mps 763 mmHg 87%
    01:00 +22°C° 0 mm 1 mps 763 mmHg 88%
    02:00 +22°C° 0 mm 1 mps 762 mmHg 88%
    03:00 +22°C° 0 mm 1 mps 762 mmHg 89%
    04:00 +22°C° 0 mm 1 mps 762 mmHg 90%
    05:00 +22°C° 0 mm 1 mps 762 mmHg 90%
    06:00 +22°C° 0 mm 1 mps 762 mmHg 90%
    07:00 +22°C° 0 mm 1 mps 762 mmHg 90%
    08:00 +23°C° 0 mm 1 mps 763 mmHg 84%
    09:00 +25°C° 0 mm 1 mps 763 mmHg 77%
    10:00 +26°C° 0 mm 1 mps 763 mmHg 70%
    11:00 +27°C° 0 mm 2 mps 762 mmHg 65%
    12:00 +28°C° 0 mm 2 mps 761 mmHg 61%
    13:00 +29°C° 0 mm 3 mps 761 mmHg 57%
    14:00 +29°C° 0 mm 3 mps 760 mmHg 60%
    15:00 +28°C° 0 mm 4 mps 760 mmHg 62%
    16:00 +28°C° 0 mm 4 mps 759 mmHg 65%
    17:00 +27°C° 0 mm 4 mps 760 mmHg 70%
    18:00 +26°C° 0 mm 3 mps 760 mmHg 75%
    19:00 +25°C° 0 mm 3 mps 761 mmHg 81%
    20:00 +25°C° 0 mm 3 mps 761 mmHg 83%
    21:00 +25°C° 0 mm 3 mps 761 mmHg 85%
    22:00 +25°C° 0 mm 3 mps 761 mmHg 87%
    23:00 +25°C° 0.1 mm 3 mps 761 mmHg 87%

    20 December, Thursday

    Time Temperature Precipitation Wind Pressure Humidity
    00:00 +25°C° 0.1 mm 3 mps 760 mmHg 87%
    01:00 +25°C° 0.1 mm 3 mps 760 mmHg 88%
    02:00 +25°C° 0.1 mm 3 mps 760 mmHg 89%
    03:00 +25°C° 0.1 mm 2 mps 760 mmHg 90%
    04:00 +25°C° 0.1 mm 2 mps 760 mmHg 91%
    05:00 +25°C° 0.1 mm 2 mps 760 mmHg 91%
    06:00 +25°C° 0.1 mm 2 mps 760 mmHg 91%
    07:00 +25°C° 0.1 mm 2 mps 760 mmHg 91%
    08:00 +26°C° 0.1 mm 3 mps 760 mmHg 86%
    09:00 +27°C° 0.1 mm 4 mps 760 mmHg 81%
    10:00 +28°C° 0.1 mm 5 mps 760 mmHg 76%
    11:00 +29°C° 0.1 mm 5 mps 759 mmHg 73%
    12:00 +30°C° 0.1 mm 5 mps 758 mmHg 70%
    13:00 +30°C° 0.1 mm 5 mps 757 mmHg 66%
    14:00 +30°C° 0 mm 5 mps 757 mmHg 68%
    15:00 +30°C° 0 mm 5 mps 756 mmHg 69%
    16:00 +30°C° 0 mm 5 mps 756 mmHg 71%
    17:00 +29°C° 0 mm 4 mps 756 mmHg 76%
    18:00 +28°C° 0 mm 4 mps 757 mmHg 82%
    19:00 +27°C° 0 mm 4 mps 757 mmHg 87%
    20:00 +27°C° 0 mm 4 mps 757 mmHg 89%
    21:00 +26°C° 0 mm 3 mps 758 mmHg 90%
    22:00 +26°C° 0 mm 3 mps 758 mmHg 91%
    23:00 +26°C° 0.1 mm 3 mps 758 mmHg 91%
    Show more